Location: Aranbee
(34.0885°N, 118.2342°W)
Time: 08:47:40
(UTC+00:00)

Courier 1B Rocket - Pass Details

Date: 01 December 2020
Orbit: 920 x 1202 km, 28.2° (Epoch: 27 January)

Event Time Altitude Azimuth Distance (km) Brightness Sun altitude
Rises 14:26:47 0° 261° (W) 4,089 7.7 -3.5°
Reaches altitude 10° 14:29:42 10° 257° (WSW) 3,130 7.2 -2.9°
Maximum altitude 14:37:20 57° 181° (S) 1,377 6.0 -1.5°
Drops below altitude 10° 14:44:45 10° 106° (ESE) 3,045 9.6 -0.1°
Sets 14:47:32 0° 102° (ESE) 3,972 10.1 0.4°
